This is the latest recevied weather packets stored in our database for station/object KC8YYF. If no packets are shown the sender has not sent any weather packets the latest 10 day(s).
| Time | Temp. | Humidity | Pressure | Rain* | Wind** | Luminosity | Snow |
|---|---|---|---|---|---|---|---|
| 1777671348 | 6.11° C | 93% | 1014.3 hPa | 0 mm | - | 24 W/m² | - |
| 1777671044 | 6.11° C | 94% | 1014 hPa | 0 mm | - | 21 W/m² | - |
| 1777670740 | 6.11° C | 94% | 1014 hPa | 0 mm | - | 34 W/m² | - |
| 1777670437 | 6.11° C | 95% | 1013.9 hPa | 0 mm | - | 34 W/m² | - |
| 1777670134 | 6.11° C | 94% | 1013.6 hPa | 0 mm | - | 22 W/m² | - |
| 1777669832 | 6.11° C | 95% | 1013.7 hPa | 0 mm | - | 21 W/m² | - |
| 1777669528 | 5.56° C | 95% | 1013.6 hPa | 0 mm | - | 23 W/m² | - |
| 1777669225 | 6.11° C | 96% | 1013.5 hPa | 0 mm | - | 53 W/m² | - |
| 1777668921 | 6.67° C | 97% | 1013.4 hPa | 0 mm | - | 66 W/m² | - |
| 1777668620 | 6.11° C | 97% | 1013.1 hPa | 0 mm | - | 61 W/m² | - |
| 1777668315 | 6.67° C | 97% | 1013.1 hPa | 0 mm | - | 99 W/m² | - |
| 1777668011 | 6.67° C | 97% | 1012.9 hPa | 0 mm | - | 95 W/m² | - |
| 1777667708 | 6.67° C | 98% | 1013.1 hPa | 0 mm | - | 77 W/m² | - |
| 1777667406 | 7.22° C | 98% | 1013.2 hPa | 0 mm | - | 87 W/m² | - |
| 1777667102 | 7.22° C | 98% | 1013 hPa | 0 mm | - | 64 W/m² | - |
| 1777666799 | 7.22° C | 98% | 1013 hPa | 0 mm | - | 243 W/m² | - |
| 1777666496 | 6.11° C | 97% | 1012.8 hPa | 0.51 mm | - | 154 W/m² | - |
| 1777666193 | 6.11° C | 97% | 1012.8 hPa | 0.51 mm | - | 48 W/m² | - |
| 1777665890 | 6.11° C | 97% | 1013 hPa | 0.51 mm | - | 29 W/m² | - |
| 1777665587 | 7.22° C | 96% | 1012.9 hPa | 0.51 mm | - | 16 W/m² | - |
| 1777665284 | 8.89° C | 98% | 1012.1 hPa | 0 mm | - | 23 W/m² | - |
| 1777664980 | 8.89° C | 98% | 1011.9 hPa | 0 mm | - | 35 W/m² | - |
| 1777664676 | 8.89° C | 98% | 1012 hPa | 0 mm | - | 147 W/m² | - |
| 1777664372 | 9.44° C | 99% | 1012.2 hPa | 0 mm | - | 117 W/m² | - |
| 1777664070 | 8.89° C | 99% | 1012.1 hPa | 0 mm | - | 146 W/m² | - |
* Rain latest hour (hover to see other rain measurements)
** Current wind speed in m/s (hover to see current wind gust speed)